Weather History for KOFF - May, 2013

Change the Weather History Date:

Monday, May 6, 2013

  Actual Average Record
Temperature  
Mean Temperature 56 °F -  
Max Temperature 67 °F 68 °F 86 °F (2004)
Min Temperature 44 °F 48 °F 33 °F (2011)
Degree Days  
Heating Degree Days 8    
Growing Degree Days 6 (Base 50)    
Moisture  
Dew Point 50 °F    
Average Humidity 91    
Maximum Humidity 100    
Minimum Humidity 60    
Precipitation  
Precipitation 0.00 in - - ()
Sea Level Pressure  
Sea Level Pressure 30.12 in    
Wind  
Wind Speed 6 mph (NNW)    
Max Wind Speed 10 mph    
Max Gust Speed -    
Visibility 8 miles    
Events      
Averages and records for this station are not official NWS values.
T = Trace of Precipitation, MM = Missing Value Source: NWS Daily Summary

Daily Weather History Graph

Daily Weather History Graph

Search for Another Location

Airport or City:

Trip Planner

Search our weather history database for the weather conditions in past years. The results will help you decide how hot, cold, wet, or windy it might be!

Date:

Astronomy

May. 06, 2013 Rise Set
Actual Time 6:14 AM CDT 8:26 PM CDT
Civil Twilight 5:44 AM CDT 8:56 PM CDT
Nautical Twilight 5:07 AM CDT 9:34 PM CDT
Astronomical Twilight 4:26 AM CDT 10:15 PM CDT
Moon 4:19 AM CDT (5/6) 5:25 PM CDT (5/6)
Length of Visible Light 15h 12m
Length of Day
14h 11m
Waning Crescent, 11% of the Moon is Illuminated
May 6
Waning Crescent
May 9
New
May 17
First Quarter
May 24
Full
May 31
Last Quarter

Hourly Weather History & Observations

Time (CDT) Temp. Dew Point Humidity Pressure Visibility Wind Dir Wind Speed Gust Speed Precip Events Conditions
12:58 AM 51.6 °F 49.6 °F 93% 30.15 in 10.0 mi North 4.6 mph - N/A   Overcast
1:58 AM 51.1 °F 49.3 °F 94% 30.13 in 10.0 mi North 4.6 mph - N/A   Overcast
2:28 AM 51.8 °F 50.0 °F 94% 30.11 in 10.0 mi North 6.9 mph - N/A   Overcast
2:58 AM 50.5 °F 49.6 °F 97% 30.13 in 9.0 mi NNW 8.1 mph - N/A   Overcast
3:08 AM 50.0 °F 50.0 °F 100% 30.11 in 10.0 mi Variable 5.8 mph - N/A   Overcast
3:23 AM 50.0 °F 50.0 °F 100% 30.11 in 9.0 mi NNW 9.2 mph - N/A   Overcast
3:48 AM 50.0 °F 50.0 °F 100% 30.11 in 10.0 mi North 10.4 mph - N/A   Overcast
3:58 AM 50.0 °F 49.8 °F 99% 30.13 in 10.0 mi North 5.8 mph - N/A   Overcast
4:28 AM 50.0 °F 50.0 °F 100% 30.12 in 10.0 mi North 6.9 mph - N/A   Overcast
4:58 AM 49.5 °F 49.1 °F 99% 30.14 in 9.0 mi North 8.1 mph - N/A   Overcast
5:33 AM 50.0 °F 48.2 °F 94% 30.12 in 4.0 mi North 8.1 mph - N/A   Overcast
5:58 AM 48.9 °F 48.6 °F 99% 30.14 in 3.0 mi North 5.8 mph - N/A   Overcast
6:18 AM 48.2 °F 48.2 °F 100% 30.13 in 2.5 mi North 4.6 mph - N/A   Overcast
6:58 AM 48.6 °F 48.4 °F 99% 30.15 in 2.5 mi North 5.8 mph - N/A   Overcast
7:23 AM 48.2 °F 48.2 °F 100% 30.14 in 3.0 mi North 5.8 mph - N/A   Overcast
7:58 AM 48.7 °F 48.6 °F 99% 30.17 in 6.0 mi North 8.1 mph - N/A   Overcast
8:58 AM 49.6 °F 49.3 °F 99% 30.17 in 7.0 mi NNW 5.8 mph - N/A   Overcast
9:58 AM 50.4 °F 50.2 °F 99% 30.17 in 7.0 mi NW 5.8 mph - N/A   Overcast
10:23 AM 50.0 °F 50.0 °F 100% 30.15 in 5.0 mi NW 5.8 mph - N/A   Overcast
10:34 AM 50.0 °F 50.0 °F 100% 30.15 in 3.0 mi NNW 8.1 mph - N/A   Overcast
10:58 AM 51.8 °F 50.0 °F 94% 30.17 in 4.0 mi WNW 8.1 mph - N/A   Overcast
11:53 AM 51.8 °F 50.0 °F 94% 30.15 in 4.0 mi North 4.6 mph - N/A   Overcast
11:58 AM 52.5 °F 49.8 °F 91% 30.17 in 4.0 mi Variable 6.9 mph - N/A   Overcast
12:58 PM 54.5 °F 50.5 °F 86% 30.16 in 5.0 mi WNW 8.1 mph - N/A   Overcast
1:43 PM 57.2 °F 51.8 °F 82% 30.13 in 10.0 mi Variable 5.8 mph - N/A   Overcast
1:58 PM 58.1 °F 52.2 °F 81% 30.14 in 10.0 mi NW 6.9 mph - N/A   Overcast
2:13 PM 59.0 °F 51.8 °F 77% 30.12 in 10.0 mi WNW 5.8 mph - N/A   Scattered Clouds
2:58 PM 61.5 °F 52.2 °F 71% 30.12 in 9.0 mi Variable 2.3 mph - N/A   Clear
3:58 PM 64.4 °F 53.2 °F 67% 30.08 in 10.0 mi Variable 4.6 mph - N/A   Clear
4:58 PM 66.4 °F 53.6 °F 63% 30.06 in 10.0 mi NE 4.6 mph - N/A   Clear
5:58 PM 67.6 °F 53.4 °F 60% 30.05 in 10.0 mi Variable 6.9 mph - N/A   Clear
6:58 PM 66.6 °F 52.9 °F 61% 30.04 in 10.0 mi ENE 4.6 mph - N/A   Clear
7:58 PM 62.8 °F 54.1 °F 73% 30.06 in 10.0 mi North 1.2 mph - N/A   Clear
8:58 PM 52.7 °F 51.3 °F 95% 30.07 in 10.0 mi Calm Calm - N/A   Clear
9:58 PM 50.0 °F 49.3 °F 97% 30.09 in 10.0 mi NNW 2.3 mph - N/A   Clear
10:43 PM 48.2 °F 46.4 °F 93% 30.07 in 6.0 mi Calm Calm - N/A   Clear
10:58 PM 48.0 °F 47.7 °F 99% 30.09 in 10.0 mi North 2.3 mph - N/A   Clear
11:03 PM 46.4 °F 46.4 °F 100% 30.07 in 5.0 mi Calm Calm - N/A   Clear
11:58 PM 44.8 °F 44.6 °F 99% 30.09 in 10.0 mi Calm Calm - N/A   Clear